Location: Luxembourg
(49.6117°N, 6.1300°E)
Time: 09:37:44
(UTC+01:00)

BlueWalker 3 - Pass Details

Date: 11 October 2024
Orbit: 470 x 481 km, 53.2° (Epoch: 13 November)

Event Time Altitude Azimuth Distance (km) Brightness Sun altitude
Exits shadow 04:24:43 12° 79° (E) 1,532 5.1 -33.0°
Drops below altitude 10° 04:24:59 10° 77° (ENE) 1,632 5.3 -33.0°
Sets 04:27:16 0° 68° (ENE) 2,513 6.6 -32.6°
